{"data":{"norad_id":68629,"epoch":"2026-09-19T11:03:31.270176Z","epoch_age_seconds":152995,"freshness":"FRESH","line1":"1 68629U 26074C   26262.46077859  .00001919  00000+0  86527-4 0  9995","line2":"2 68629  60.0201 176.2431 0038357  89.2370 271.3106 15.24992177 25162","mean_motion":15.24992177,"eccentricity":0.0038357,"inclination_deg":60.0201,"raan_deg":176.2431,"arg_perigee_deg":89.237,"mean_anomaly_deg":271.3106,"bstar":8.6527e-5,"rev_number":2516,"period_min":94.426713901759,"perigee_km":464.46170893958,"apogee_km":517.15614070727,"semimajor_km":6868.9459248234,"source":"CELESTRAK","updated_at":"2026-09-20T09:00:24.364955Z"}}